TimeEST,TemperatureF,Dew PointF,Humidity,Sea Level PressureIn,VisibilityMPH,Wind Direction,Wind SpeedMPH,Gust SpeedMPH,PrecipitationIn,Events,Conditions,WindDirDegrees,DateUTC
12:15 AM,33.1,27.3,79,29.82,5.0,SSW,9.2,-,N/A,Snow,Light Snow,210,2013-02-14 05:15:00
12:35 AM,32.9,27.5,81,29.82,7.0,SW,10.4,-,N/A,,Clear,220,2013-02-14 05:35:00
12:55 AM,32.9,27.9,82,29.82,10.0,SW,10.4,-,N/A,,Clear,220,2013-02-14 05:55:00
1:15 AM,32.9,28.0,82,29.82,4.0,SSW,10.4,-,N/A,,Haze,210,2013-02-14 06:15:00
1:35 AM,32.9,28.4,84,29.82,4.0,SSW,10.4,-,N/A,Snow,Light Snow,210,2013-02-14 06:35:00
1:55 AM,32.9,28.4,84,29.82,4.0,SSW,10.4,-,N/A,Snow,Light Snow,210,2013-02-14 06:55:00
2:15 AM,32.5,28.6,85,29.81,3.0,SSW,10.4,-,N/A,Snow,Light Snow,210,2013-02-14 07:15:00
2:35 AM,32.4,28.8,87,29.81,3.0,SSW,10.4,-,N/A,Snow,Light Snow,210,2013-02-14 07:35:00
2:55 AM,32.2,28.9,88,29.81,7.0,SSW,10.4,-,N/A,,Clear,210,2013-02-14 07:55:00
3:15 AM,32.0,28.9,88,29.81,3.0,SSW,9.2,-,N/A,,Clear,210,2013-02-14 08:15:00
3:35 AM,32.0,29.1,89,29.82,7.0,SSW,8.1,-,N/A,,Clear,210,2013-02-14 08:35:00
3:55 AM,32.0,29.3,90,29.81,7.0,SSW,8.1,-,N/A,,Clear,200,2013-02-14 08:55:00
4:15 AM,32.0,29.7,91,29.81,7.0,SSW,6.9,-,N/A,,Clear,210,2013-02-14 09:15:00
4:35 AM,31.8,29.5,91,29.80,2.5,SSW,5.8,-,N/A,Snow,Light Snow,200,2013-02-14 09:35:00
4:55 AM,31.8,30.0,93,29.80,4.0,SSW,8.1,-,N/A,,Clear,200,2013-02-14 09:55:00
5:15 AM,32.0,30.4,94,29.80,4.0,SSW,10.4,-,N/A,,Clear,210,2013-02-14 10:15:00
5:35 AM,32.0,30.9,96,29.81,3.0,SSW,9.2,-,N/A,Snow,Light Snow,210,2013-02-14 10:35:00
5:55 AM,32.4,31.1,95,29.80,3.0,South,8.1,-,N/A,Snow,Light Snow,190,2013-02-14 10:55:00
6:15 AM,32.4,31.1,95,29.80,2.5,SSW,10.4,-,N/A,Snow,Light Snow,200,2013-02-14 11:15:00
6:35 AM,32.5,31.3,95,29.80,3.0,SSW,11.5,-,N/A,Snow,Light Snow,200,2013-02-14 11:35:00
6:55 AM,32.9,31.6,95,29.81,4.0,SSW,10.4,-,N/A,,Overcast,200,2013-02-14 11:55:00
7:15 AM,32.9,31.8,96,29.81,4.0,South,9.2,-,N/A,,Overcast,190,2013-02-14 12:15:00
7:35 AM,33.1,32.0,96,29.80,4.0,South,11.5,-,N/A,,Overcast,190,2013-02-14 12:35:00
7:55 AM,33.3,32.0,95,29.80,4.0,South,12.7,17.3,N/A,,Overcast,190,2013-02-14 12:55:00
8:15 AM,33.6,32.0,94,29.79,4.0,South,13.8,-,N/A,,Overcast,180,2013-02-14 13:15:00
8:35 AM,33.8,32.0,93,29.79,3.0,South,15.0,19.6,N/A,,Mostly Cloudy,190,2013-02-14 13:35:00
8:55 AM,33.8,32.0,93,29.79,4.0,South,13.8,-,N/A,,Overcast,190,2013-02-14 13:55:00
9:15 AM,34.0,32.0,92,29.79,4.0,South,13.8,19.6,N/A,,Overcast,190,2013-02-14 14:15:00
9:35 AM,34.5,32.2,91,29.79,5.0,South,15.0,19.6,N/A,,Overcast,190,2013-02-14 14:35:00
9:55 AM,35.1,32.2,89,29.79,5.0,SSW,15.0,-,N/A,,Overcast,210,2013-02-14 14:55:00
10:15 AM,35.2,32.2,89,29.79,5.0,SSW,21.9,-,N/A,,Overcast,210,2013-02-14 15:15:00
10:35 AM,35.8,32.5,88,29.79,7.0,SSW,19.6,-,N/A,,Overcast,200,2013-02-14 15:35:00
10:55 AM,36.9,32.9,86,29.78,7.0,SSW,18.4,23.0,N/A,,Overcast,200,2013-02-14 15:55:00
11:15 AM,37.9,33.3,83,29.78,4.0,SSW,19.6,24.2,N/A,,Haze,200,2013-02-14 16:15:00
11:35 AM,39.2,34.0,82,29.79,3.0,SW,16.1,24.2,N/A,,Unknown,220,2013-02-14 16:35:00
11:55 AM,40.1,33.8,78,29.79,3.0,SW,20.7,27.6,N/A,,Haze,230,2013-02-14 16:55:00
12:15 PM,41.0,33.8,76,29.79,3.0,SW,18.4,25.3,N/A,,Haze,230,2013-02-14 17:15:00
12:35 PM,41.9,34.7,76,29.78,5.0,SW,21.9,26.5,N/A,,Haze,230,2013-02-14 17:35:00
12:55 PM,43.2,35.1,73,29.78,5.0,SW,21.9,28.8,N/A,,Haze,230,2013-02-14 17:55:00
1:15 PM,43.0,34.9,73,29.77,3.0,SW,19.6,25.3,N/A,,Unknown,230,2013-02-14 18:15:00
1:35 PM,43.5,35.1,72,29.77,2.5,WSW,21.9,28.8,N/A,,Haze,240,2013-02-14 18:35:00
1:55 PM,43.7,34.3,70,29.76,3.0,WSW,23.0,28.8,N/A,,Haze,240,2013-02-14 18:55:00
2:15 PM,44.8,35.1,69,29.76,5.0,WSW,20.7,24.2,N/A,,Haze,250,2013-02-14 19:15:00
2:35 PM,44.1,34.7,70,29.77,7.0,West,21.9,27.6,N/A,,Overcast,260,2013-02-14 19:35:00
2:55 PM,43.0,34.2,71,29.78,3.0,WNW,23.0,28.8,N/A,,Haze,290,2013-02-14 19:55:00
3:15 PM,42.3,33.8,72,29.79,4.0,West,23.0,29.9,N/A,,Haze,280,2013-02-14 20:15:00
3:35 PM,42.6,34.2,72,29.80,7.0,West,20.7,28.8,N/A,,Scattered Clouds,280,2013-02-14 20:35:00
3:55 PM,42.3,33.8,72,29.81,4.0,WNW,21.9,28.8,N/A,,Haze,290,2013-02-14 20:55:00
4:15 PM,41.4,33.1,72,29.82,3.0,WNW,26.5,32.2,N/A,,Haze,290,2013-02-14 21:15:00
4:35 PM,39.7,31.6,73,29.84,5.0,WNW,25.3,32.2,N/A,,Haze,290,2013-02-14 21:35:00
4:55 PM,38.8,30.4,72,29.85,5.0,WNW,18.4,28.8,N/A,,Haze,290,2013-02-14 21:55:00
5:15 PM,38.5,30.9,74,29.86,10.0,West,17.3,25.3,N/A,,Overcast,280,2013-02-14 22:15:00
5:35 PM,38.3,31.1,75,29.88,7.0,West,16.1,25.3,N/A,,Overcast,280,2013-02-14 22:35:00
5:55 PM,37.9,31.1,76,29.89,10.0,WNW,18.4,23.0,N/A,,Overcast,290,2013-02-14 22:55:00
6:15 PM,37.8,29.8,73,29.89,10.0,West,17.3,32.2,N/A,,Overcast,280,2013-02-14 23:15:00
6:35 PM,37.4,30.2,75,29.91,10.0,West,15.0,21.9,N/A,,Overcast,280,2013-02-14 23:35:00
6:55 PM,37.4,30.6,76,29.92,5.0,West,13.8,-,N/A,Snow,Light Snow,280,2013-02-14 23:55:00
7:15 PM,37.4,30.6,76,29.93,4.0,WNW,17.3,25.3,N/A,Snow,Light Snow,290,2013-02-15 00:15:00
7:35 PM,37.0,30.0,76,29.94,5.0,West,19.6,25.3,N/A,,Haze,280,2013-02-15 00:35:00
7:55 PM,37.0,28.2,70,29.94,4.0,WNW,17.3,24.2,N/A,Snow,Light Snow,290,2013-02-15 00:55:00
8:15 PM,36.5,28.4,72,29.95,7.0,West,15.0,-,N/A,,Overcast,280,2013-02-15 01:15:00
8:35 PM,36.3,28.9,75,29.95,7.0,West,13.8,-,N/A,,Overcast,270,2013-02-15 01:35:00
8:55 PM,36.5,29.3,75,29.95,4.0,West,16.1,23.0,N/A,Snow,Light Snow,270,2013-02-15 01:55:00
9:15 PM,36.5,29.5,76,29.96,5.0,West,16.1,19.6,N/A,,Haze,280,2013-02-15 02:15:00
9:35 PM,36.5,28.9,74,29.96,10.0,West,15.0,-,N/A,,Overcast,280,2013-02-15 02:35:00
9:55 PM,36.1,28.6,74,29.96,10.0,West,15.0,-,N/A,,Overcast,280,2013-02-15 02:55:00
10:15 PM,36.0,28.4,74,29.96,10.0,West,17.3,-,N/A,,Overcast,280,2013-02-15 03:15:00
10:35 PM,35.6,28.6,76,29.97,10.0,West,13.8,-,N/A,,Overcast,280,2013-02-15 03:35:00
10:55 PM,35.2,29.1,78,29.97,10.0,West,13.8,-,N/A,,Overcast,280,2013-02-15 03:55:00
11:15 PM,34.7,28.8,79,29.97,10.0,West,11.5,-,N/A,,Mostly Cloudy,280,2013-02-15 04:15:00
11:35 PM,33.3,28.4,82,29.97,10.0,West,8.1,-,N/A,,Clear,280,2013-02-15 04:35:00
11:55 PM,32.2,28.2,85,29.97,10.0,West,8.1,-,N/A,,Clear,280,2013-02-15 04:55:00